Wharton, TX

2:17 PM CDT on September 22, 2019 (GMT -0500)
Wharton Regional

Weather History for KARM - August, 2019

Change the Weather History Date:

Friday, August 23, 2019

  Actual Average (KPSX) Record (KPSX)
Temperature  
Mean Temperature 84 °F -  
Max Temperature 95 °F 90 °F 99 °F (1951)
Min Temperature 72 °F 75 °F 66 °F (1949)
Cooling Degree Days 18    
Growing Degree Days 34 (Base 50)    
Moisture  
Dew Point 73 °F    
Average Humidity 82    
Maximum Humidity 96    
Minimum Humidity 37    
Precipitation  
Precipitation 3.17 in - - ()
Sea Level Pressure  
Sea Level Pressure 29.90 in    
Wind  
Wind Speed 2 mph ()    
Max Wind Speed 20 mph    
Max Gust Speed 33 mph    
Visibility 9.3 miles    
Events Rain , Thunderstorm    
Averages and records for this station are not official NWS values.
T = Trace of Precipitation, MM = Missing Value Source: Averaged Metar Reports

Daily Weather History Graph

Daily Weather History Graph

Search for Another Location

Airport or City:

Astronomy

Aug. 23, 2019 Rise Set
Actual Time 6:57 AM CDT 7:56 PM CDT
Civil Twilight 6:32 AM CDT 8:21 PM CDT
Nautical Twilight 6:03 AM CDT 8:50 PM CDT
Astronomical Twilight 5:33 AM CDT 9:19 PM CDT
Moon 12:20 AM CDT (8/23) 2:00 PM CDT (8/23)
Length of Visible Light 13h 48m
Length of Day
12h 59m
Waning Gibbous, 49% of the Moon is Illuminated
Aug 23
Waning Gibbous
Aug 30
New
Sep 5
First Quarter
Sep 13
Full
Sep 21
Last Quarter

Hourly Weather History & Observations

Time (CDT) Temp. Heat Index Dew Point Humidity Pressure Visibility Wind Dir Wind Speed Gust Speed Precip Events Conditions
12:15 AM 78.3 °F - 73.4 °F 85% 29.92 in 10.0 mi East 3.5 mph - N/A   Clear
12:35 AM 78.1 °F - 73.4 °F 85% 29.92 in 10.0 mi Calm Calm - N/A   Clear
12:55 AM 77.9 °F - 73.4 °F 86% 29.93 in 10.0 mi Calm Calm - N/A   Clear
1:15 AM 77.2 °F - 73.4 °F 88% 29.91 in 10.0 mi East 3.5 mph - N/A   Clear
1:35 AM 77.0 °F - 73.4 °F 89% 29.91 in 10.0 mi Calm Calm - N/A   Clear
1:55 AM 76.5 °F - 73.0 °F 89% 29.91 in 10.0 mi Calm Calm - N/A   Clear
2:15 AM 76.6 °F - 73.6 °F 90% 29.91 in 10.0 mi Calm Calm - N/A   Clear
2:35 AM 75.7 °F - 72.9 °F 91% 29.90 in 10.0 mi Calm Calm - N/A   Clear
2:55 AM 75.9 °F - 73.6 °F 92% 29.90 in 10.0 mi Calm Calm - N/A   Mostly Cloudy
3:20 AM 76.3 °F - 73.8 °F 92% 29.90 in 10.0 mi Calm Calm - N/A   Scattered Clouds
3:40 AM 76.1 °F - 73.6 °F 92% 29.90 in 10.0 mi East 3.5 mph - N/A   Clear
3:55 AM 75.7 °F - 73.4 °F 92% 29.90 in 10.0 mi Calm Calm - N/A   Scattered Clouds
4:35 AM 76.1 °F - 74.3 °F 94% 29.90 in 10.0 mi Calm Calm - N/A   Mostly Cloudy
4:55 AM 75.7 °F - 73.8 °F 94% 29.90 in 10.0 mi Calm Calm - N/A   Scattered Clouds
5:15 AM 75.6 °F - 73.8 °F 94% 29.90 in 10.0 mi Calm Calm - N/A   Clear
5:35 AM 75.2 °F - 73.6 °F 95% 29.91 in 7.0 mi Calm Calm - N/A   Scattered Clouds
5:55 AM 75.2 °F - 73.6 °F 95% 29.91 in 10.0 mi Calm Calm - N/A   Mostly Cloudy
6:15 AM 75.7 °F - 74.3 °F 95% 29.91 in 10.0 mi Calm Calm - N/A   Scattered Clouds
6:35 AM 75.6 °F - 74.1 °F 95% 29.91 in 10.0 mi Calm Calm - N/A   Clear
6:55 AM 75.2 °F - 73.6 °F 95% 29.91 in 10.0 mi Calm Calm - N/A Thunderstorm Clear
7:15 AM 75.0 °F - 73.6 °F 95% 29.93 in 7.0 mi Calm Calm - N/A   Mostly Cloudy
7:35 AM 75.9 °F - 74.7 °F 96% 29.93 in 7.0 mi Calm Calm - N/A   Scattered Clouds
8:00 AM 77.0 °F - 75.6 °F 95% 29.94 in 10.0 mi Calm Calm - N/A   Mostly Cloudy
8:15 AM 77.7 °F - 75.6 °F 93% 29.94 in 10.0 mi Calm Calm - N/A Rain Light Rain
8:35 AM 78.8 °F - 76.1 °F 91% 29.94 in 10.0 mi South 3.5 mph - N/A   Scattered Clouds
8:55 AM 79.3 °F - 74.7 °F 86% 29.94 in 10.0 mi South 5.8 mph - N/A   Mostly Cloudy
9:15 AM 80.6 °F 85.4 °F 73.4 °F 79% 29.93 in 10.0 mi South 4.6 mph - N/A   Scattered Clouds
9:35 AM 81.0 °F 86.2 °F 73.8 °F 79% 29.94 in 10.0 mi Calm Calm - N/A   Mostly Cloudy
9:55 AM 82.8 °F 87.9 °F 72.1 °F 70% 29.93 in 10.0 mi Calm Calm - N/A   Overcast
10:35 AM 86.7 °F 93.7 °F 72.9 °F 63% 29.92 in 10.0 mi WNW 4.6 mph - N/A   Scattered Clouds
10:55 AM 88.5 °F 95.3 °F 72.1 °F 58% 29.92 in 10.0 mi NW 4.6 mph - N/A   Scattered Clouds
11:15 AM 87.1 °F 92.4 °F 70.7 °F 58% 29.92 in 10.0 mi Calm Calm - N/A   Mostly Cloudy
11:35 AM 90.3 °F 96.2 °F 70.3 °F 52% 29.92 in 10.0 mi WNW 5.8 mph - N/A   Mostly Cloudy
11:55 AM 89.4 °F 94.4 °F 69.4 °F 52% 29.91 in 10.0 mi Calm Calm - N/A   Light Drizzle
12:15 PM 91.0 °F 96.1 °F 69.6 °F 49% 29.91 in 10.0 mi NNW 4.6 mph - N/A   Scattered Clouds
12:35 PM 90.0 °F 95.0 °F 69.4 °F 51% 29.90 in 10.0 mi NNE 3.5 mph - N/A   Scattered Clouds
12:55 PM 90.1 °F 94.9 °F 69.1 °F 50% 29.90 in 10.0 mi NE 3.5 mph - N/A   Scattered Clouds
1:15 PM 94.3 °F 98.7 °F 67.6 °F 42% 29.90 in 10.0 mi Calm Calm - N/A   Scattered Clouds
1:35 PM 93.7 °F 98.8 °F 68.9 °F 44% 29.88 in 10.0 mi NE 6.9 mph - N/A   Mostly Cloudy
1:55 PM 93.4 °F 97.6 °F 68.0 °F 43% 29.88 in 10.0 mi East 5.8 mph - N/A   Mostly Cloudy
2:20 PM 93.9 °F 97.5 °F 66.9 °F 41% 29.88 in 10.0 mi ENE 5.8 mph - N/A   Scattered Clouds
2:35 PM 95.5 °F 98.4 °F 65.7 °F 37% 29.87 in 10.0 mi ESE 3.5 mph - N/A   Scattered Clouds
2:55 PM 91.6 °F 95.7 °F 68.0 °F 46% 29.86 in 10.0 mi East 10.4 mph 17.3 mph N/A Thunderstorm Thunderstorm
3:15 PM 81.3 °F 85.8 °F 72.0 °F 73% 29.94 in 1.0 mi SE 19.6 mph 33.4 mph 0.36 in Rain , Thunderstorm Heavy Thunderstorms and Rain
3:35 PM 75.6 °F - 71.8 °F 88% 29.97 in 0.2 mi SSE 13.8 mph 26.5 mph 2.11 in Rain , Thunderstorm Heavy Thunderstorms and Rain
4:15 PM 73.8 °F - 71.6 °F 93% 29.90 in 3.0 mi SSE 19.6 mph 24.2 mph 0.64 in Rain , Thunderstorm Thunderstorms and Rain
4:35 PM 73.4 °F - 70.9 °F 92% 29.88 in 7.0 mi SSE 12.7 mph - 1.03 in Rain , Thunderstorm Light Thunderstorms and Rain
4:55 PM 72.7 °F - 70.2 °F 92% 29.87 in 10.0 mi SSE 8.1 mph - 1.05 in   Mostly Cloudy
5:15 PM 73.8 °F - 70.7 °F 90% 29.87 in 10.0 mi ENE 4.6 mph - N/A   Mostly Cloudy
5:35 PM 73.6 °F - 70.7 °F 91% 29.88 in 10.0 mi Calm Calm - N/A Rain Light Rain
5:55 PM 74.3 °F - 71.6 °F 91% 29.87 in 10.0 mi ESE 5.8 mph - 0.01 in Rain Light Rain
6:15 PM 74.7 °F - 72.1 °F 92% 29.86 in 10.0 mi East 8.1 mph - N/A   Scattered Clouds
6:35 PM 75.4 °F - 72.9 °F 92% 29.87 in 10.0 mi Calm Calm - N/A   Scattered Clouds
6:55 PM 75.6 °F - 73.4 °F 93% 29.86 in 10.0 mi East 4.6 mph - N/A   Scattered Clouds
7:15 PM 75.7 °F - 73.4 °F 92% 29.87 in 10.0 mi East 4.6 mph - N/A   Clear
7:35 PM 75.9 °F - 73.4 °F 92% 29.86 in 10.0 mi East 5.8 mph - N/A   Clear
7:55 PM 76.1 °F - 73.6 °F 92% 29.87 in 10.0 mi East 4.6 mph - N/A   Clear
8:15 PM 75.7 °F - 73.6 °F 93% 29.87 in 10.0 mi East 4.6 mph - N/A   Clear
8:35 PM 75.7 °F - 73.6 °F 93% 29.87 in 10.0 mi ENE 3.5 mph - N/A   Clear
8:55 PM 75.6 °F - 73.6 °F 94% 29.89 in 10.0 mi ENE 4.6 mph - N/A   Clear
9:15 PM 76.1 °F - 74.3 °F 94% 29.89 in 7.0 mi ENE 4.6 mph - N/A   Scattered Clouds
9:35 PM 76.1 °F - 74.3 °F 94% 29.89 in 7.0 mi East 5.8 mph - N/A   Scattered Clouds
9:55 PM 76.1 °F - 74.5 °F 95% 29.90 in 10.0 mi East 4.6 mph - N/A   Scattered Clouds
10:15 PM 76.3 °F - 74.5 °F 94% 29.90 in 10.0 mi Calm Calm - N/A   Scattered Clouds
10:35 PM 76.3 °F - 74.5 °F 94% 29.90 in 10.0 mi Calm Calm - N/A   Scattered Clouds
10:55 PM 76.3 °F - 74.5 °F 94% 29.91 in 10.0 mi Calm Calm - N/A   Clear
11:15 PM 76.1 °F - 74.3 °F 94% 29.91 in 10.0 mi East 3.5 mph - N/A   Clear
11:35 PM 76.1 °F - 74.5 °F 95% 29.90 in 7.0 mi East 3.5 mph - N/A   Clear
11:55 PM 76.1 °F - 74.3 °F 94% 29.91 in 7.0 mi Calm Calm - N/A   Clear